Skip Page Navigation
NASA JPL Caltech
NASA Logo - Jet Propulsion Laboratory + View the NASA Portal
+ Near-Earth Object (NEO) Program
Search JPL
JPL Home Earth Solar System Stars & Galaxies Technology
JPL Solar System Dynamics
BODIES ORBITS EPHEMERIDES TOOLS PHYSICAL DATA DISCOVERY FAQ SITE MAP
JPL Small-Body Database Browser
Search: [ help ]  
10545 Kallunge (1992 EQ9)
Classification: Main-belt Asteroid          SPK-ID: 2010545
Ephemeris | Orbit Diagram | Orbital Elements | Physical Parameters | Discovery Circumstances ]

[ show orbit diagram ]
Orbital Elements at Epoch 2456400.5 (2013-Apr-18.0) TDB
Reference: MPO250316 (heliocentric ecliptic J2000)
 Element Value Uncertainty (1-sigma)   Units 
e 0.1200410 n/a  
a 2.2361667 n/a AU
q 1.9677350 n/a AU
i 2.57975 n/a deg
node 193.97802 n/a deg
peri 243.44405 n/a deg
M 182.01303 n/a deg
tp 2457004.3657429
(2014-Dec-12.86574290)
n/a JED
period 1221.3909111
3.34
n/a
n/a
d
yr
n 0.29474593 n/a deg/d
Q 2.5045984 n/a AU
  Orbit Determination Parameters
   # obs. used (total)      860  
   first obs. used      1977-??-??  
   last obs. used      2012-06-08  
   # oppositions      12  
   planetary ephem.      DE403  
   condition code      0  
   fit RMS      0.55  
   data source      MPC:mpn  
   producer      MPCLINUX  

Additional Information
 T_jup = 3.627 

Ephemeris | Orbit Diagram | Orbital Elements | Physical Parameters | Discovery Circumstances ]

Physical Parameter Table
Parameter Symbol Value Units Sigma Reference Notes
absolute magnitude H 14.4 mag n/a PDS3 (MPC 34448)  

10545 Källunge           Discovered 1992 Mar. 2 at the European Southern Observatory in the course of the Uppsala-ESO Survey of Asteroids and Comets.
Källunge is a small parish on Gotland. The architecture of the church, the only one on the island of its kind, is very strange.
NOTE: some special characters may not display properly (any characters within {} are an attempt to place the proper accent above a character)
Reference: 20091004/MPCPages.arcLast Updated: 2009-10-06

Alternate Designations
 1992 EQ9 = 1977 UC3 
Ephemeris | Orbit Diagram | Orbital Elements | Physical Parameters | Discovery Circumstances ]
ABOUT SSD CREDITS/AWARDS PRIVACY/COPYRIGHT GLOSSARY LINKS
FirstGov 2013-May-24 05:29 UT
(server date/time)  
NASA Home Page
Site Manager:   Donald K. Yeomans
Webmaster  Alan B. Chamberlin